Location: Flotzheim
(48.8375°N, 10.8136°E)
Time: 16:22:38
(UTC+00:00)

Cosmos 1680 Rocket - Pass Details

Date: 23 January 2021
Orbit: 760 x 780 km, 74.1° (Epoch: 28 February)

Event Time Altitude Azimuth Distance (km) Brightness Sun altitude
Rises 16:27:32 0° 342° (NNW) 3,252 6.7 -4.9°
Reaches altitude 10° 16:30:18 10° 355° (N) 2,318 5.8 -5.3°
Maximum altitude 16:34:44 27° 53° (NE) 1,450 4.4 -5.9°
Drops below altitude 10° 16:39:07 10° 110° (ESE) 2,297 5.5 -6.6°
Sets 16:41:50 0° 123° (ESE) 3,217 6.4 -7.0°
